Flag for Guinea Weather past 2 weeks in Conakry, Guinea

Now
75 °F

Broken clouds.


Feels Like: 74 °F
Forecast: 76 / 82 °F
Wind: 5 mph from Northeast

Location: Conakry / Gbessia

Current Time: Aug 1, 2014 at 7:58:11 AM

Latest Report: Aug 1, 2014 at 7:00 AM


Visibility: N/A

Pressure: 29.98 "Hg

Humidity: 94%

Dew point: 73 °F

Location of ConakryLocation

Historic Weather in Conakry — Graph

°F

Conakry temperature yesterday

Maximum temperature yesterday: 84 °F (at 12:00 PM)
Minimum temperature yesterday: 75 °F (at 6:00 AM)
Average temperature yesterday: 79 °F

Past Weeks' High & Low Weather Summary

 TemperatureHumidityPressure
High86 °F (Jul 20, 2:00 PM)100% (Jul 18, 12:00 AM)30.07 "Hg (Jul 18, 12:00 AM)
Low72 °F (Jul 25, 5:00 AM)62% (Jul 20, 4:00 PM)29.83 "Hg (Jul 28, 4:00 AM)
Average79 °F89%29.95 "Hg
* Reported Jul 17 6:00 AM — Aug 1 6:00 AM, Conakry, Weather by CustomWeather, © 2014

Note: Actual official high and low records may vary slightly from our data, if they occured in-between our weather recording intervals... More about our weather records

Advertising

Conakry weather history for previous 24 hours

 ConditionsComfort  
Time TempWeatherWind HumidityBarometerVisibility
6:00 AM
Aug 1
75 °FPartly cloudy.2 mph94%29.95 "HgN/A
5:00 AM75 °FThunderstorms. Partly cloudy.5 mph100%29.98 "Hg5 mi
4:00 AM75 °FThunderstorms. Partly cloudy.5 mph100%29.95 "Hg5 mi
3:00 AM75 °FThunderstorms. Passing clouds.5 mph100%29.95 "HgN/A
2:00 AM73 °FThunderstorms. Passing clouds.5 mph100%29.98 "HgN/A
1:00 AM75 °FThunderstorms. Passing clouds.2 mph100%29.98 "HgN/A
12:00 AM75 °FThunderstorms. Passing clouds.7 mph100%30.01 "Hg3 mi
10:00 PM
Jul 31
77 °FThunderstorms. Mostly cloudy.5 mph100%29.98 "Hg2 mi
9:00 PM77 °FThunderstorms. Mostly cloudy.5 mph100%29.98 "Hg2 mi
8:00 PM77 °FThunderstorms. Mostly cloudy.12 mph100%29.95 "Hg3 mi
7:00 PM77 °FThunderstorms. Mostly cloudy.9 mph100%29.92 "Hg3 mi
6:00 PM79 °FThunderstorms. Mostly cloudy.12 mph94%29.92 "Hg3 mi
5:00 PM81 °FThunderstorms. Partly sunny.12 mph84%29.92 "HgN/A
4:00 PM81 °FThunderstorms. Partly sunny.12 mph84%29.92 "HgN/A
2:00 PM84 °FScattered clouds.12 mph79%29.92 "HgN/A
1:00 PM84 °FScattered clouds.12 mph84%29.95 "HgN/A
12:00 PM84 °FBroken clouds.9 mph79%29.98 "HgN/A
11:00 AM82 °FPartly sunny.5 mph79%29.98 "HgN/A
10:00 AM82 °FBroken clouds.5 mph84%29.95 "HgN/A
9:00 AM79 °FBroken clouds.5 mph89%29.95 "HgN/A
8:00 AM77 °FBroken clouds.5 mph94%29.92 "HgN/A
7:00 AM75 °FBroken clouds.5 mph100%29.92 "HgN/A
Weather by CustomWeather, © 2014

See weather overviewHow to use our weather pages